Lid_Strength_Index
2 2 2 2 2 2 2 2 2 1 1 1 1 0 0 1 1 1 4 2 1 -2 0 2 2 3 3 4 3 3 8 8 7 7 6 5 5 4 3 4 4 3 3 3 2
3 3 2 2 2 2 3 2 2 2 1 1 1 1 1 1 2 2 -0 -2 -1 -2 3 3 4 4 5 4 4 6 8 8 5 5 6 5 5 4 5 4 4 4 3 2 2
3 2 2 3 3 2 3 3 2 2 2 1 1 1 1 1 3 3 -3 -1 -2 -0 2 2 2 4 6 5 5 6 8 6 5 5 4 5 5 4 5 5 4 4 3 2 2
3 3 3 3 3 3 3 3 2 2 2 2 1 1 1 1 7 2 -3 -2 -2 1 1 3 4 5 6 6 5 7 6 6 5 5 5 5 4 5 5 4 3 3 2 2 2
3 4 3 3 3 3 3 3 3 2 2 2 1 1 2 3 3 1 -3 -2 1 1 2 3 4 5 6 5 5 6 6 5 5 5 5 5 6 5 5 3 3 3 3 3 2
4 4 4 4 4 3 3 3 3 3 3 2 1 1 2 6 1 1 1 1 1 1 2 3 4 3 5 5 6 5 5 5 5 5 5 6 6 5 5 3 3 3 3 3 2
4 4 4 4 4 4 3 3 3 3 3 2 1 2 3 3 1 1 1 1 1 2 3 2 3 4 4 5 4 5 6 5 5 5 5 5 7 6 4 3 4 4 3 3 2
4 4 4 4 4 4 3 3 3 3 2 2 1 2 4 0 -0 1 1 1 1 1 2 2 2 4 4 4 5 6 6 8 6 5 5 5 8 5 4 4 5 4 4 3 2
4 4 4 4 4 4 4 4 3 2 2 1 2 3 5 1 2 1 1 2 2 2 2 2 3 4 4 7 7 7 9 8 7 5 5 6 8 5 4 4 4 4 4 3 3
4 5 5 5 4 4 4 4 2 2 2 1 2 4 3 3 2 2 1 1 2 3 3 4 4 6 6 7 11 9 9 8 9 6 6 7 7 5 4 4 4 4 4 3 3
5 5 5 5 5 5 4 1 3 4 2 4 4 4 3 1 1 2 1 2 3 4 6 4 7 8 7 6 6 7 8 9 7 6 6 7 7 6 5 4 5 4 4 4 3
5 5 5 5 5 5 4 2 2 2 5 3 3 3 2 2 4 3 2 4 5 7 5 6 8 6 5 6 7 7 8 8 7 6 6 7 7 6 5 5 4 4 4 4 3
6 6 6 5 6 4 2 3 1 1 5 4 3 3 3 3 5 4 3 4 5 6 6 7 7 5 6 7 7 8 8 8 8 7 6 7 8 7 5 5 4 4 4 3 3
6 6 6 6 4 2 3 1 1 -0 8 6 5 4 3 3 5 2 2 4 5 7 6 7 5 6 7 7 7 9 6 7 8 8 11 7 12 8 7 6 5 5 4 4 3
6 6 6 6 3 3 3 2 1 1 16 6 5 2 3 4 4 4 2 3 6 6 6 7 7 7 8 7 6 8 6 7 7 9 9 9 11 9 7 7 6 5 4 4 3
6 6 6 4 2 1 1 2 2 9 14 7 5 6 5 5 5 4 4 3 3 6 6 6 4 6 6 6 6 6 7 7 8 9 13 10 10 10 9 7 6 5 4 4 3
7 7 7 3 4 2 1 3 9 13 6 8 7 6 6 6 6 5 6 6 8 10 9 7 7 6 5 7 6 6 9 13 14 14 14 9 11 10 7 6 6 6 5 4 3
7 7 3 2 2 1 1 6 13 8 8 6 6 6 8 6 6 6 7 8 6 7 9 10 11 7 5 7 8 8 9 13 18 17 15 10 13 10 6 5 5 5 4 4 3
7 2 2 2 3 1 4 10 10 8 7 7 7 8 8 7 7 7 7 8 6 6 9 10 10 6 6 6 6 8 10 7 11 11 13 12 10 7 6 6 5 5 5 4 3
6 3 3 2 3 2 6 10 8 6 6 7 9 7 9 8 8 8 8 6 7 6 5 8 12 7 6 5 6 7 6 11 10 16 17 13 12 11 8 7 7 7 6 4 3
5 5 4 3 2 5 9 8 7 5 6 7 8 9 8 9 8 9 8 6 6 6 6 7 9 10 7 8 9 8 9 9 10 12 17 18 13 7 7 7 7 6 5 4 4
5 7 3 3 6 5 7 7 9 7 5 6 6 7 8 8 9 9 9 7 5 5 8 7 9 13 11 7 6 7 8 9 15 15 15 16 16 6 7 6 6 6 5 4 3
8 6 3 4 9 8 8 8 8 8 8 7 8 7 7 8 10 9 8 6 6 7 8 7 10 14 12 10 7 8 8 8 9 12 16 18 16 7 7 6 6 7 6 5 4
7 8 6 5 5 7 8 8 8 7 8 8 8 8 9 9 8 9 9 7 6 7 5 7 10 12 14 12 9 10 10 9 10 15 14 14 12 9 8 7 6 6 6 5 6
6 8 7 9 8 8 7 8 9 9 7 7 9 9 9 10 9 10 8 8 7 6 7 7 12 10 10 9 9 9 10 9 10 10 12 11 10 9 7 6 6 5 6 6 6
9 9 8 8 7 8 8 8 8 8 8 9 10 9 9 10 9 11 9 9 9 7 8 7 11 10 12 9 9 10 9 9 9 9 9 9 9 6 6 6 5 6 5 6 6
5 5 7 7 7 8 8 7 8 8 8 8 9 9 10 9 7 7 7 7 7 9 9 9 10 11 14 9 10 13 9 9 9 8 9 14 10 7 8 7 7 6 5 6 5